Tracking 34138 objects as of 17-May-2026
HD Live streaming from Space Station
objects crossing your sky now

NOAA 16 DEB

Track NOAA 16 DEB now!
10-day predictions


NORAD ID: 41408
Int'l Code: 2000-055KM
Perigee: 779.6 km
Apogee: 791.3 km
Inclination: 98.7 °
Period: 100.4 minutes
Semi major axis: 7156 km
RCS: Unknown
Launch date: September 21, 2000
Source: United States (US)
Launch site: AIR FORCE WESTERN TEST RANGE (AFWTR)

Note: This is SATELLITE DEBRIS
Your satellite tracking list
Your tracking list is empty




NASA's NSSDC Master Catalog

Two Line Element Set (TLE):
1 41408U 00055KM  26136.73816124  .00003058  00000-0  11104-2 0  9992
2 41408  98.7222 234.2296 0008171 346.3667  13.7295 14.34022193530733
Source of the keplerian elements: AFSPC